DW5444 Weather Reports


time (UTC)temp
F
wind
direction
speed
knots
gust
knots
rain 1hr
in
rain 24hr
in
rain mn
in
humidity
%
barometer
mb
20260510040023 59 67 4.3 6.1 0.00 0.00 0.00 51 1015.4
20260510034523 59 61 3.5 6.1 0.00 0.00 0.00 54 1015.3
20260510033021 60 62 4.3 6.1 0.00 0.00 0.00 57 1015.3
20260510031524 58 66 3.5 4.3 0.00 0.00 0.00 66 1015.3
20260510030020 59 52 2.6 3.5 0.00 0.00 0.00 65 1015.4
20260510024521 62 72 2.6 3.5 0.00 0.00 0.00 60 1015.4
20260510023019 63 69 2.6 3.5 0.00 0.00 0.00 57 1015.4
20260510021541 65 57 1.7 5.2 0.00 0.00 0.00 54 1015.4
20260510020017 66 54 3.5 6.1 0.00 0.00 0.00 52 1015.5
20260510014530 66 57 2.6 5.2 0.00 0.00 0.00 50 1015.7
20260510013012 68 61 4.3 7.0 0.00 0.00 0.00 46 1016.0
20260510011516 70 33 2.6 7.8 0.00 0.00 0.00 44 1016.1
20260510010020 70 57 2.6 7.8 0.00 0.00 0.00 43 1016.1
20260510004509 71 312 1.7 7.0 0.00 0.00 0.00 40 1016.3
20260510003007 70 331 2.6 6.1 0.00 0.00 0.00 41 1016.6
20260510001506 71 54 4.3 7.0 0.00 0.00 0.00 39 1016.7
20260510000004 71 45 3.5 7.0 0.00 0.00 0.00 39 1016.8
20260509234503 70 337 2.6 6.1 0.00 0.00 0.00 39 1016.9
20260509233001 70 315 3.5 7.0 0.00 0.00 0.00 38 1016.8
20260509231604 70 52 2.6 7.0 0.00 0.00 0.00 37 1017.1
20260509230059 70 303 3.5 9.6 0.00 0.00 0.00 37 1017.3
20260509224556 71 38 2.6 6.1 0.00 0.00 0.00 36 1017.5
20260509223054 70 286 1.7 7.0 0.00 0.00 0.00 36 1017.7
20260509221550 69 305 0.9 7.0 0.00 0.00 0.00 37 1017.8
20260509220051 70 315 1.7 7.0 0.00 0.00 0.00 35 1017.9
20260509214549 69 335 1.7 7.8 0.00 0.00 0.00 36 1018.0
20260509213103 70 59 3.5 6.1 0.00 0.00 0.00 37 1018.1
20260509211546 69 42 1.7 6.1 0.00 0.00 0.00 38 1018.1
20260509210049 69 312 4.3 8.7 0.00 0.00 0.00 39 1018.3
20260509204540 69 263 2.6 7.0 0.00 0.00 0.00 40 1018.4
20260509203037 68 74 1.7 5.2 0.00 0.00 0.00 40 1018.6
20260509201538 68 296 3.5 8.7 0.00 0.00 0.00 38 1018.6
20260509200034 67 303 1.7 6.1 0.00 0.00 0.00 42 1018.8
20260509194544 67 303 1.7 6.1 0.00 0.00 0.00 43 1018.9
20260509193027 66 278 4.3 7.0 0.00 0.00 0.00 45 1019.1
20260509191526 67 277 0.9 4.3 0.00 0.00 0.00 50 1019.3
20260509190026 66 22 0.0 6.1 0.00 0.00 0.00 44 1019.3
20260509184521 64 299 1.7 5.2 0.00 0.00 0.00 49 1019.5
20260509183017 63 267 2.6 4.3 0.00 0.00 0.00 51 1019.5
20260509181515 63 274 2.6 7.8 0.00 0.00 0.00 56 1019.7
20260509180012 62 217 0.9 6.1 0.00 0.00 0.00 51 1019.8
20260509174510 61 252 1.7 4.3 0.00 0.00 0.00 54 1019.9
20260509173009 61 287 1.7 5.2 0.00 0.00 0.00 58 1020.0
20260509171507 61 258 1.7 7.0 0.00 0.00 0.00 61 1020.1
20260509170005 60 246 2.6 6.1 0.00 0.00 0.00 54 1020.1
20260509164502 58 297 0.0 4.3 0.00 0.00 0.00 58 1020.1
20260509163104 57 286 1.7 4.3 0.00 0.00 0.00 59 1020.1
20260509161604 57 267 2.6 4.3 0.00 0.00 0.00 62 1020.1
20260509160056 56 297 3.5 6.1 0.00 0.00 0.00 63 1020.3
20260509154553 55 261 3.5 5.2 0.00 0.00 0.00 65 1020.4
20260509153058 54 280 2.6 6.1 0.00 0.00 0.00 69 1020.3
20260509151546 54 264 3.5 7.0 0.00 0.00 0.00 69 1020.3
20260509150045 54 234 2.6 6.1 0.00 0.00 0.00 68 1020.4
20260509144547 53 253 3.5 6.1 0.00 0.00 0.00 70 1020.4
20260509143042 53 254 2.6 6.1 0.00 0.00 0.00 70 1020.2
20260509141542 53 213 0.9 2.6 0.00 0.00 0.00 68 1020.1
20260509140045 51 117 0.0 2.6 0.00 0.00 0.00 72 1019.9
20260509134530 49 126 0.9 3.5 0.00 0.00 0.00 75 1019.8
20260509133028 47 85 1.7 4.3 0.00 0.00 0.00 78 1019.7
20260509131528 44 114 0.0 2.6 0.00 0.00 0.00 82 1019.6
20260509130027 43 108 3.5 6.1 0.00 0.00 0.00 83 1019.5
20260509124524 43 123 0.9 3.5 0.00 0.00 0.00 83 1019.6
20260509123023 44 114 3.5 6.1 0.00 0.00 0.00 80 1019.6
20260509121521 44 128 3.5 5.2 0.00 0.00 0.00 81 1019.8
20260509120022 44 130 3.5 5.2 0.00 0.00 0.00 81 1019.8
20260509114520 44 129 2.6 5.2 0.00 0.00 0.00 81 1019.7
20260509113018 44 124 4.3 5.2 0.00 0.00 0.00 82 1019.8
20260509111516 43 137 3.5 4.3 0.00 0.00 0.00 82 1019.7
20260509110013 45 132 2.6 4.3 0.00 0.00 0.00 79 1019.8
20260509104514 44 137 1.7 4.3 0.00 0.00 0.00 80 1019.7
20260509103012 45 136 1.7 5.2 0.00 0.00 0.00 79 1019.9
20260509101513 46 196 1.7 4.3 0.00 0.00 0.00 76 1019.8
20260509100011 47 213 2.6 6.1 0.00 0.00 0.00 77 1019.9
20260509094512 46 223 3.5 7.8 0.00 0.00 0.00 77 1019.8
20260509093009 45 130 0.9 3.5 0.00 0.00 0.00 79 1019.9
20260509091510 45 122 0.9 3.5 0.00 0.00 0.00 80 1019.9
20260509090005 45 128 4.3 5.2 0.00 0.00 0.00 79 1019.8
20260509084503 47 112 1.7 7.0 0.00 0.00 0.00 76 1019.7
20260509083001 47 125 1.7 5.2 0.00 0.00 0.00 75 1019.8
20260509081600 47 229 2.6 8.7 0.00 0.00 0.00 74 1019.5
20260509081502 47 227 2.6 9.6 0.00 0.00 0.00 74 1019.5
20260509080059 46 147 1.7 4.3 0.00 0.00 0.00 76 1019.6
20260509074611 47 121 1.7 5.2 0.00 0.00 0.00 75 1019.6
20260509073106 48 204 2.6 5.2 0.00 0.00 0.00 74 1019.6
20260509071556 49 237 1.7 7.8 0.00 0.00 0.00 72 1019.6
20260509070048 49 229 4.3 11.3 0.00 0.00 0.00 71 1019.4
20260509064545 50 215 1.7 4.3 0.00 0.00 0.00 69 1019.5
20260509063055 50 244 5.2 10.4 0.00 0.00 0.00 67 1019.3
20260509061541 49 146 1.7 4.3 0.00 0.00 0.00 69 1019.3
20260509060059 50 196 1.7 5.2 0.00 0.00 0.00 67 1019.0
20260509054538 51 244 5.2 9.6 0.00 0.00 0.00 66 1019.0
20260509053051 52 227 3.5 7.0 0.00 0.00 0.00 64 1019.2
20260509051534 51 230 4.3 10.4 0.00 0.00 0.00 64 1018.9
20260509050034 51 270 2.6 7.0 0.00 0.00 0.00 63 1018.9
20260509044532 52 229 3.5 6.1 0.00 0.00 0.00 61 1018.6
20260509043040 53 241 2.6 7.8 0.00 0.00 0.00 59 1018.6
20260509041527 54 251 7.0 15.6 0.00 0.00 0.00 57 1018.4